This is the latest recevied weather packets stored in our database for station/object IW1CBG-3. If no packets are shown the sender has not sent any weather packets the latest 10 day(s).
| Time | Temp. | Humidity | Pressure | Rain* | Wind** | Luminosity | Snow |
|---|---|---|---|---|---|---|---|
| 1788237977 | 12.78° C | 89% | 1030.6 hPa | 0 mm | - | - | - |
| 1788237377 | 12.22° C | 90% | 1030.4 hPa | 0 mm | - | - | - |
| 1788236777 | 12.22° C | 91% | 1030.5 hPa | 0 mm | - | - | - |
| 1788236177 | 12.22° C | 91% | 1030.4 hPa | 0 mm | - | - | - |
| 1788235578 | 12.78° C | 90% | 1030.6 hPa | 0 mm | - | - | - |
| 1788234978 | 12.78° C | 89% | 1030.1 hPa | 0 mm | - | - | - |
| 1788234378 | 12.22° C | 92% | 1030.5 hPa | 0 mm | - | - | - |
| 1788233777 | 12.22° C | 91% | 1030.1 hPa | 0 mm | - | - | - |
| 1788233176 | 12.78° C | 89% | 1030 hPa | 0 mm | - | - | - |
| 1788232577 | 13.33° C | 86% | 1029.9 hPa | 0 mm | - | - | - |
| 1788231977 | 13.89° C | 85% | 1029.5 hPa | 0 mm | - | - | - |
| 1788231377 | 13.33° C | 86% | 1029.6 hPa | 0 mm | - | - | - |
| 1788230778 | 13.89° C | 87% | 1029.6 hPa | 0 mm | - | - | - |
| 1788230177 | 13.33° C | 90% | 1030 hPa | 0 mm | - | - | - |
| 1788229577 | 12.78° C | 91% | 1030 hPa | 0 mm | - | - | - |
| 1788228976 | 12.78° C | 93% | 1030 hPa | 0 mm | - | - | - |
| 1788228380 | 12.78° C | 92% | 1029.8 hPa | 0 mm | - | - | - |
| 1788227777 | 12.78° C | 92% | 1029.8 hPa | 0 mm | - | - | - |
| 1788227177 | 12.78° C | 91% | 1029.9 hPa | 0 mm | - | - | - |
| 1788226576 | 13.33° C | 91% | 1029.2 hPa | 0 mm | - | - | - |
| 1788225977 | 13.33° C | 92% | 1029.6 hPa | 0 mm | - | - | - |
| 1788225378 | 13.33° C | 92% | 1029.3 hPa | 0 mm | - | - | - |
| 1788224778 | 14.44° C | 89% | 1029 hPa | 0 mm | - | - | - |
| 1788224178 | 14.44° C | 89% | 1029 hPa | 0 mm | - | - | - |
| 1788223578 | 14.44° C | 90% | 1029.1 hPa | 0 mm | - | - | - |
* Rain latest hour (hover to see other rain measurements)
** Current wind speed in m/s (hover to see current wind gust speed)